Date,TemperatureHighF,TemperatureAvgF,TemperatureLowF,DewpointHighF,DewpointAvgF,DewpointLowF,HumidityHigh,HumidityAvg,HumidityLow,PressureMaxIn,PressureMinIn,WindSpeedMaxMPH,WindSpeedAvgMPH,GustSpeedMaxMPH,PrecipitationSumIn
2013-1-1,36,30,19,24,16,5,70,56,44,29.92,29.72,7,2,15,0.01
2013-1-2,29,19,12,14,7,2,69,58,46,30.09,29.90,5,1,12,0.01
2013-1-3,24,12,2,8,-2,-8,66,53,31,30.14,30.00,2,0,8,0.00
2013-1-4,36,27,16,23,17,7,81,67,53,30.00,29.81,6,1,14,0.01
2013-1-5,40,32,23,23,20,15,78,61,43,30.26,29.85,5,1,12,0.03
2013-1-6,42,31,23,27,23,17,84,73,54,30.22,29.94,3,0,9,0.01
2013-1-7,38,30,24,27,21,15,85,70,45,30.40,29.96,3,0,7,0.00
2013-1-8,45,34,24,28,24,19,87,70,49,30.37,30.26,4,1,11,0.00
2013-1-9,42,34,23,33,27,19,87,74,57,30.40,30.00,3,1,13,0.00
2013-1-10,46,40,31,28,23,21,66,51,40,30.54,30.04,5,2,17,0.00
2013-1-11,38,32,25,33,25,20,89,76,62,30.53,30.22,1,0,3,0.10
2013-1-12,40,38,35,38,36,32,95,91,89,30.23,30.13,1,0,3,0.13
2013-1-13,50,44,39,47,42,37,93,92,89,30.16,29.99,2,0,7,0.02
2013-1-14,59,50,40,50,41,28,91,74,41,30.24,29.84,5,1,12,0.00
2013-1-15,40,36,30,28,24,23,77,63,52,30.32,30.22,2,0,5,0.00
2013-1-16,32,31,28,30,27,23,91,86,72,30.25,29.83,0,0,2,0.07
2013-1-17,39,33,28,33,26,13,91,77,52,30.09,29.83,4,0,11,0.24
2013-1-18,28,21,16,14,2,-5,59,44,30,30.44,30.04,4,1,14,0.01
2013-1-19,47,35,18,29,20,6,71,56,39,30.39,29.89,6,1,21,0.04
2013-1-20,51,40,27,31,24,9,72,55,36,29.91,29.54,10,2,22,0.01
2013-1-21,28,23,19,18,9,4,84,55,39,30.09,29.79,4,1,13,0.00
2013-1-22,23,18,11,17,6,-3,86,62,36,30.07,29.75,5,1,13,0.00
2013-1-23,14,9,5,-2,-8,-11,61,46,31,30.13,30.06,5,1,12,0.00
2013-1-24,18,9,0,-7,-10,-12,57,43,30,30.21,30.06,4,1,14,0.00
2013-1-25,22,14,6,9,-7,-12,74,39,25,30.30,30.06,3,1,10,0.00
2013-1-26,23,15,8,10,2,-7,82,57,31,30.23,30.01,4,1,10,0.00
2013-1-27,29,19,10,3,0,-4,64,45,28,30.46,30.23,4,1,9,0.00
2013-1-28,30,22,15,23,12,0,88,65,38,30.45,30.01,1,0,6,0.00
2013-1-29,32,28,24,29,25,21,90,88,85,30.19,30.01,1,0,2,0.01
2013-1-30,59,46,31,56,43,28,93,90,84,30.15,29.47,6,2,20,0.17
2013-1-31,57,41,30,54,26,14,91,57,40,29.59,28.98,11,4,22,0.54
2013-2-1,31,27,21,15,8,2,55,43,34,30.08,29.59,5,2,14,0.02
2013-2-2,29,23,15,11,6,2,58,48,38,30.24,30.04,3,1,10,0.00
2013-2-3,25,23,19,20,17,10,86,78,53,30.05,29.73,1,0,6,0.00
2013-2-4,28,22,18,19,10,5,87,61,39,29.93,29.72,6,2,16,0.00
2013-2-5,28,23,19,20,12,7,87,62,50,30.02,29.93,2,0,6,0.00
2013-2-6,37,28,22,24,17,3,87,66,39,30.28,29.92,4,1,11,0.02
2013-2-7,29,23,14,12,3,0,67,44,30,30.52,30.28,4,0,8,0.01
2013-2-8,31,26,16,28,21,10,90,80,56,30.48,29.61,4,1,13,0.01
2013-2-9,20,17,13,17,14,9,88,86,83,30.19,29.58,6,3,14,0.01
2013-2-10,34,20,5,30,12,0,89,73,48,30.39,30.19,2,0,6,0.23
2013-2-11,40,29,17,38,23,7,91,78,58,30.35,29.61,1,0,6,0.18
2013-2-12,42,36,31,33,28,24,92,71,53,29.88,29.61,6,2,18,0.15
2013-2-13,41,32,26,24,22,20,83,67,51,29.87,29.70,3,0,7,0.01
2013-2-14,44,34,27,25,21,19,78,60,39,29.99,29.70,3,0,7,0.00
2013-2-15,51,37,27,33,28,21,88,72,49,29.99,29.90,4,1,12,0.00
2013-2-16,36,32,29,29,25,15,88,75,53,29.96,29.73,2,0,7,0.03
2013-2-17,28,20,16,18,10,-1,86,65,42,29.73,29.40,8,3,20,0.01
2013-2-18,30,21,13,2,0,-2,53,40,26,30.16,29.68,7,3,20,0.00
2013-2-19,46,34,21,40,21,2,91,61,42,30.17,29.59,3,0,9,0.31
2013-2-20,41,31,25,39,19,9,91,63,42,29.78,29.54,6,2,18,0.31
2013-2-21,32,26,23,14,12,9,66,54,44,30.17,29.77,5,2,16,0.01
2013-2-22,40,30,21,23,19,13,78,64,44,30.38,30.17,2,0,8,0.00
2013-2-23,37,32,27,29,26,21,89,77,67,30.33,29.92,2,0,7,0.01
2013-2-24,34,32,30,32,30,28,91,91,89,29.92,29.69,2,0,6,0.40
2013-2-25,36,32,28,32,29,25,91,88,77,30.24,29.88,1,0,3,0.28
2013-2-26,41,34,26,34,27,23,91,77,58,30.34,30.15,4,0,8,0.02
2013-2-27,40,38,35,38,35,29,91,89,75,30.16,29.57,7,2,19,1.21
2013-2-28,44,36,32,37,33,30,92,87,73,29.64,29.53,1,0,5,0.13
2013-3-1,39,36,29,32,28,25,91,75,62,29.68,29.53,3,0,8,0.01
2013-3-2,41,36,30,28,25,23,78,67,57,29.68,29.62,4,1,9,0.00
2013-3-3,39,34,31,30,26,23,88,75,66,29.65,29.56,2,0,6,0.00
2013-3-4,38,33,28,26,22,19,79,66,53,29.74,29.58,5,2,15,0.00
2013-3-5,43,35,29,30,25,21,85,67,53,30.07,29.74,3,1,11,0.00
2013-3-6,38,35,33,33,30,28,90,83,69,30.10,30.04,6,2,19,0.14
2013-3-7,34,31,29,29,27,26,89,86,73,30.06,29.99,4,1,11,0.09
2013-3-8,34,30,28,32,28,25,92,90,77,30.15,29.94,1,0,6,0.05
2013-3-9,48,34,26,29,24,19,88,66,37,30.35,30.14,3,0,8,0.52
2013-3-10,44,32,21,31,26,18,89,79,58,30.42,30.31,4,0,8,0.01
2013-3-11,53,40,32,38,33,28,88,76,52,30.33,30.15,4,1,10,0.00
2013-3-12,55,48,40,50,45,37,92,89,78,30.16,29.73,3,1,12,0.46
2013-3-13,51,42,31,49,30,19,92,65,34,29.78,29.70,4,1,11,0.45
2013-3-14,33,30,22,23,14,5,71,52,41,29.83,29.71,5,2,14,0.00
2013-3-15,39,29,18,26,12,4,71,49,27,29.87,29.63,4,2,11,0.00
2013-3-16,39,32,27,25,14,8,72,48,29,29.86,29.66,3,1,9,0.00
2013-3-17,36,28,21,16,12,4,73,53,26,30.03,29.86,4,1,9,0.00
2013-3-18,38,30,16,24,10,0,84,46,25,30.45,30.24,2,0,7,0.00
2013-3-19,33,31,28,31,28,24,91,90,84,30.24,29.61,5,1,17,0.40
2013-3-20,37,29,23,25,20,17,91,71,45,29.81,29.70,6,2,16,0.40
2013-3-21,36,28,21,26,20,16,87,73,44,29.82,29.61,2,0,5,0.12
2013-3-22,39,32,26,24,18,15,88,59,40,29.74,29.61,4,1,9,0.11
2013-3-23,42,34,27,22,18,16,72,54,38,29.79,29.64,7,2,14,0.01
2013-3-24,45,36,30,25,21,18,71,54,40,29.81,29.73,3,1,10,0.00
2013-3-25,41,35,28,31,27,23,82,73,65,29.77,29.52,3,1,11,0.00
2013-3-26,47,39,33,28,24,19,75,56,34,29.78,29.54,3,1,8,0.00
2013-3-27,51,41,28,29,22,18,68,50,33,29.87,29.75,4,1,10,0.00
2013-3-28,47,41,35,33,31,28,87,69,49,30.02,29.87,2,0,6,0.00
2013-3-29,56,44,33,34,30,27,82,59,34,30.05,29.97,3,1,8,0.00
2013-3-30,56,45,33,31,23,15,77,46,22,30.10,30.01,4,1,9,0.00
2013-3-31,60,43,26,38,25,-100,84,54,24,30.12,29.76,4,1,14,0.01
2013-4-1,61,46,34,45,35,11,91,69,37,29.79,29.51,5,2,15,0.15
2013-4-2,39,33,27,16,12,9,56,42,31,29.94,29.79,9,3,16,0.04
2013-4-3,45,35,28,18,12,9,60,40,25,30.16,29.92,8,3,18,0.00
2013-4-4,55,40,27,24,16,11,60,39,18,30.29,30.05,3,1,13,0.00
2013-4-5,60,45,35,29,25,20,70,49,24,30.06,29.63,4,1,11,0.00
2013-4-6,45,40,31,24,13,4,55,35,19,30.33,29.88,5,-575,14,0.00
2013-4-7,55,46,29,36,20,6,72,39,21,30.33,30.00,6,-371,27,0.05
2013-4-8,65,51,41,40,36,29,88,59,26,30.09,29.95,4,1,7,0.05
2013-4-9,70,54,44,51,40,35,90,62,34,30.08,29.87,5,1,11,0.12
2013-4-10,65,51,44,46,43,39,90,76,47,30.01,29.86,3,0,9,0.18
2013-4-11,52,46,40,43,33,23,91,64,41,30.14,29.94,2,0,5,0.15
2013-4-12,40,37,35,35,33,29,91,85,64,30.16,29.79,6,1,15,0.46
2013-4-13,51,41,34,38,34,30,91,76,45,29.93,29.77,3,1,7,0.11
2013-4-14,50,43,35,37,29,22,89,60,35,30.21,29.91,3,1,14,0.01
2013-4-15,57,43,28,36,28,23,87,60,27,30.39,30.21,3,0,9,0.00
2013-4-16,64,50,36,48,38,32,89,66,41,30.40,30.07,4,1,15,0.00
2013-4-17,65,57,47,50,33,22,80,44,19,30.33,30.06,5,1,12,0.00
2013-4-18,65,50,34,40,30,23,78,49,25,30.42,30.15,5,1,13,0.00
2013-4-19,74,62,50,59,54,41,91,76,53,30.15,29.66,6,2,18,0.00
2013-4-20,65,52,43,60,38,19,90,62,31,30.21,29.60,5,2,11,0.52
2013-4-21,53,41,31,25,18,12,66,41,20,30.68,30.21,4,1,11,0.02
2013-4-22,50,40,28,31,26,17,87,60,28,30.75,30.60,6,1,15,0.00
2013-4-23,40,39,37,38,34,27,91,84,65,30.60,30.15,3,1,6,0.01
2013-4-24,77,55,39,47,40,30,91,65,20,30.15,29.79,3,2,10,0.01
2013-4-25,64,54,42,50,32,18,89,49,17,30.27,29.83,4,2,12,0.02
2013-4-26,60,47,34,37,30,25,84,55,31,30.43,30.27,5,1,10,0.02
2013-4-27,66,50,33,39,32,28,91,58,26,30.42,30.29,3,0,8,0.00
2013-4-28,71,53,36,38,31,23,87,49,20,30.34,30.21,4,1,12,0.00
2013-4-29,70,56,44,44,33,22,83,46,19,30.27,30.19,3,1,9,0.00
2013-4-30,52,46,42,33,30,27,69,53,38,30.31,30.25,0,0,2,0.00
2013-5-1,63,54,46,33,29,24,58,40,23,30.46,30.45,1,0,5,0.00
2013-5-2,78,54,40,42,36,29,86,56,18,30.49,30.35,5,1,13,0.00
2013-5-3,61,49,40,40,37,34,83,64,44,30.52,30.39,5,1,10,0.00
2013-5-4,60,47,35,41,35,31,91,67,38,30.39,30.31,4,1,9,0.00
2013-5-5,60,46,31,39,34,28,90,68,39,30.34,30.26,4,1,10,0.00
2013-5-6,72,50,33,46,39,30,92,70,31,30.29,30.15,4,0,8,0.00
2013-5-7,79,61,42,54,47,39,92,64,35,30.18,30.09,3,0,8,0.00
2013-5-8,73,61,50,60,54,47,91,79,56,30.20,30.05,3,1,11,0.09
2013-5-9,68,59,56,61,56,53,93,89,66,30.05,29.89,1,0,4,0.68
2013-5-10,80,64,52,57,51,-100,93,70,33,29.96,29.90,2,0,6,0.11
2013-5-11,70,62,57,59,56,51,91,79,64,29.92,29.70,4,1,14,0.06
2013-5-12,71,60,49,57,47,-100,92,69,34,29.81,29.57,5,1,10,0.25
2013-5-13,58,48,38,32,26,22,69,44,25,30.03,29.81,4,1,10,0.01
2013-5-14,57,47,34,33,28,22,86,51,26,30.05,29.97,4,1,7,0.00
2013-5-15,65,49,35,49,36,26,87,66,25,30.06,29.68,4,1,12,0.03
2013-5-16,80,58,47,49,19,-100,92,47,14,29.79,29.64,5,1,11,0.03
2013-5-17,68,57,49,41,31,-100,70,47,26,30.22,29.79,6,1,9,0.00
2013-5-18,74,58,42,45,40,31,90,56,22,30.30,30.22,3,0,5,0.00
2013-5-19,73,56,46,51,47,42,91,73,36,30.35,30.23,3,0,8,0.08
2013-5-20,82,66,54,62,57,51,93,75,47,30.23,29.92,2,0,6,0.11
2013-5-21,84,62,50,65,55,47,92,80,52,30.01,29.86,3,0,8,0.25
2013-5-22,68,55,49,60,51,46,92,86,69,30.06,29.89,3,0,7,0.38
2013-5-23,75,63,53,66,58,50,93,86,72,29.93,29.82,4,1,12,0.30
2013-5-24,70,62,47,65,58,45,93,90,80,29.83,29.66,3,0,8,0.77
2013-5-25,49,45,39,47,43,36,93,92,90,29.82,29.71,4,1,7,0.33
2013-5-26,56,46,38,40,36,34,92,71,45,30.09,29.72,6,2,10,0.09
2013-5-27,72,55,39,44,36,26,91,56,19,30.16,30.07,5,1,10,0.02
2013-5-28,76,58,40,50,42,33,92,61,21,30.23,30.15,2,0,5,0.00
2013-5-29,69,61,56,62,57,48,92,86,75,30.19,30.00,2,0,5,0.82
2013-5-30,87,73,61,67,63,59,94,74,44,30.09,30.01,2,0,7,0.51
2013-5-31,94,79,63,68,62,56,93,62,29,30.09,29.93,2,0,7,0.00
2013-6-1,92,79,65,65,62,59,83,59,34,29.98,29.86,3,1,11,0.00
2013-6-2,90,77,67,67,61,-100,85,64,34,29.89,29.73,6,2,20,0.00
2013-6-3,78,68,60,66,60,41,91,77,49,29.85,29.75,1,0,6,0.40
2013-6-4,70,59,46,47,42,38,81,54,33,30.09,29.83,3,1,8,0.06
2013-6-5,76,61,46,49,44,39,90,59,30,30.19,30.09,2,0,6,0.00
2013-6-6,75,63,52,51,46,42,82,57,35,30.19,30.10,2,0,7,0.00
2013-6-7,57,54,52,54,52,50,93,91,80,30.12,29.83,1,0,4,2.16
2013-6-8,77,61,51,62,55,49,93,81,56,30.00,29.62,3,1,8,2.17
2013-6-9,79,66,54,55,53,49,93,66,38,30.16,30.00,2,0,6,0.01
2013-6-10,69,60,53,58,54,50,92,81,55,30.20,30.02,2,0,5,0.64
2013-6-11,61,57,55,56,54,53,93,90,81,30.03,29.57,2,0,7,1.60
2013-6-12,69,61,55,55,52,50,94,75,52,29.81,29.56,6,1,9,0.51
2013-6-13,65,55,49,57,51,47,93,87,70,29.82,29.67,1,0,3,0.76
2013-6-14,74,58,50,57,51,47,93,80,46,29.77,29.64,2,0,6,1.40
2013-6-15,78,65,52,53,45,37,91,56,23,29.94,29.77,3,0,7,0.02
2013-6-16,75,64,52,60,51,44,80,64,38,29.94,29.71,2,0,8,0.00
2013-6-17,86,69,58,62,57,52,93,69,31,29.91,29.78,5,0,10,0.37
2013-6-18,75,61,57,63,58,55,94,88,61,29.95,29.88,4,0,7,0.60
2013-6-19,77,63,54,55,51,44,94,69,33,30.14,29.91,2,0,4,0.09
2013-6-20,80,63,48,53,48,41,93,65,29,30.26,30.14,2,0,7,0.01
2013-6-22,85,79,67,62,58,54,66,49,36,30.22,30.11,3,1,11,0.00
2013-6-23,90,76,63,69,62,54,78,63,48,30.16,30.00,4,1,11,0.00
2013-6-24,93,80,69,70,67,62,89,67,41,30.03,29.88,2,0,5,0.02
2013-6-25,92,78,67,68,65,63,90,68,39,29.93,29.72,4,1,15,0.02
2013-6-26,84,74,68,69,66,64,88,77,55,29.85,29.72,3,0,6,0.00
2013-6-27,71,66,62,65,62,59,91,87,75,29.86,29.80,1,0,2,0.00
2013-6-28,82,77,69,71,68,65,93,76,64,29.55,29.49,4,2,13,0.33
2013-6-29,84,74,69,68,66,63,92,77,55,29.72,29.51,4,1,12,0.01
2013-6-30,86,75,68,71,67,64,90,77,56,29.93,29.72,3,1,11,0.00
2013-7-1,82,74,70,75,70,67,92,88,70,30.08,29.93,2,0,7,0.29
2013-7-2,83,74,64,72,68,60,91,82,65,30.20,30.07,2,0,8,0.01
2013-7-3,87,75,61,71,66,58,91,76,53,30.20,30.13,3,1,14,0.00
2013-7-4,93,82,70,72,70,68,92,70,48,30.20,30.09,4,0,10,0.00
2013-7-5,94,82,73,73,70,68,88,69,44,30.16,30.03,3,1,9,0.00
2013-7-6,90,81,73,72,70,66,88,71,47,30.08,29.98,2,0,7,0.00
2013-7-7,93,78,67,75,68,63,89,75,47,30.02,29.90,1,0,6,0.00
2013-7-8,87,75,67,73,69,63,92,82,57,30.06,29.91,1,0,5,0.00
2013-7-9,73,67,63,66,63,60,92,86,78,30.10,30.04,1,0,2,0.00
2013-7-10,85,72,65,72,65,-100,92,83,64,30.07,29.79,3,0,10,0.04
2013-7-11,78,72,70,72,70,66,93,90,76,29.92,29.78,2,0,5,0.10
2013-7-12,76,69,64,67,59,54,91,71,54,30.19,29.91,3,0,7,0.01
2013-7-13,77,70,64,69,64,57,92,82,70,30.30,30.19,1,0,3,0.00
2013-7-14,91,77,67,73,69,65,94,77,43,30.30,30.20,2,0,3,0.00
2013-7-15,92,78,69,74,70,67,93,77,45,30.21,30.09,1,0,4,0.00
2013-7-16,92,78,66,70,66,61,92,68,36,30.16,30.10,2,0,8,0.00
2013-7-17,96,81,68,72,67,62,91,67,34,30.17,30.00,1,0,6,0.00
2013-7-18,94,82,73,72,69,67,86,67,42,30.01,29.93,2,0,6,0.00
2013-7-19,97,84,71,75,71,67,91,68,38,29.95,29.72,3,1,12,0.00
2013-7-20,93,83,74,75,70,64,86,67,45,29.80,29.65,2,0,8,0.00
2013-7-21,85,74,67,65,62,59,87,67,43,29.98,29.80,2,0,5,0.00
2013-7-22,84,71,63,68,64,60,92,80,50,30.01,29.89,2,0,5,0.00
2013-7-23,81,71,68,75,68,64,93,90,78,29.88,29.54,3,0,8,1.21
2013-7-24,83,74,66,71,65,52,94,76,48,29.95,29.58,2,0,6,0.01
2013-7-25,65,59,57,55,51,45,93,77,62,30.10,29.95,3,1,5,1.83
2013-7-26,70,63,57,67,60,55,93,91,86,30.06,29.94,2,1,5,2.00
2013-7-27,84,70,57,67,60,55,94,74,41,30.06,29.99,2,0,5,0.02
2013-7-28,86,71,63,69,65,60,92,82,53,30.01,29.95,2,0,4,0.01
2013-7-29,84,72,66,69,65,62,93,80,54,30.03,29.96,3,0,6,0.36
2013-7-30,82,69,58,64,58,52,93,72,39,30.09,30.03,3,0,4,0.36
2013-7-31,83,70,58,63,57,49,91,68,33,30.14,30.03,2,0,4,0.00
2013-8-1,80,68,60,63,60,57,92,77,50,30.05,29.88,4,0,10,0.00
2013-8-2,82,70,63,67,61,55,93,74,40,29.88,29.79,3,0,5,0.67
2013-8-3,78,69,62,62,60,57,91,75,49,29.86,29.78,2,0,8,0.02
2013-8-4,80,66,57,59,55,51,90,70,39,29.89,29.77,2,0,7,0.00
2013-8-5,76,62,52,54,46,37,91,62,26,30.05,29.89,3,1,7,0.00
2013-8-6,81,63,48,53,49,45,91,64,33,30.14,30.05,1,0,4,0.00
2013-8-7,81,66,53,59,52,45,91,65,30,30.19,30.11,2,0,7,0.00
2013-8-8,79,70,63,70,63,54,91,81,69,30.14,30.01,2,0,6,0.05
2013-8-9,74,71,69,72,68,66,94,91,86,30.03,29.75,2,0,12,1.09
2013-8-10,82,72,60,69,60,52,94,70,37,30.01,29.79,3,0,5,0.06
2013-8-11,80,65,52,57,53,47,92,68,37,30.08,30.00,2,0,5,0.01
2013-8-21,88,72,60,65,60,57,90,70,39,30.14,30.07,1,0,5,0.00
2013-8-22,85,74,64,69,65,60,88,74,49,30.08,29.87,2,0,9,0.00
2013-8-23,79,70,63,67,58,49,90,66,39,30.14,29.86,3,1,7,0.00
2013-8-24,78,64,50,50,46,40,88,58,27,30.37,30.17,3,0,6,0.00
2013-8-25,83,66,48,55,47,-100,91,57,27,30.40,30.23,1,0,4,0.00
2013-8-26,79,70,63,65,60,53,83,69,55,30.23,29.91,2,0,6,0.00
2013-8-27,84,72,67,68,66,63,93,81,54,29.91,29.88,1,0,3,0.01
2013-8-28,86,75,64,65,62,61,89,66,47,30.01,29.90,2,0,5,0.00
2013-8-29,64,63,60,61,59,54,91,86,82,30.11,29.99,2,0,4,0.00
2013-8-30,66,61,59,60,57,55,89,87,81,30.07,30.00,0,0,4,0.00
2013-9-3,79,71,61,69,66,57,94,83,65,29.85,29.74,2,0,7,0.03
2013-9-4,79,67,55,59,54,50,93,68,37,29.96,29.85,2,0,7,0.00
2013-9-5,68,60,48,59,51,42,92,73,41,30.18,29.90,2,0,5,0.04
2013-9-6,69,53,40,45,40,35,92,67,31,30.28,30.14,2,0,4,0.01
2013-9-7,79,62,48,54,47,43,83,62,29,30.13,29.91,2,0,8,0.00
2013-9-8,72,61,48,59,46,-100,88,64,35,30.13,29.79,4,1,7,0.00
2013-9-9,69,52,40,43,39,36,90,66,33,30.27,30.13,2,0,7,0.00
2013-9-24,65,50,39,43,39,36,89,69,39,30.03,29.85,3,1,5,0.00
2013-9-25,67,53,42,49,44,39,92,74,51,30.02,29.91,3,0,5,0.00
2013-9-26,65,56,50,50,47,44,87,73,50,30.16,30.02,1,0,3,0.00
2013-9-27,62,56,48,52,49,45,91,80,64,30.30,30.16,1,0,4,0.00
2013-9-28,72,56,43,55,48,41,94,76,46,30.37,30.29,2,0,5,0.00
2013-9-29,69,52,43,51,42,-100,93,77,37,30.31,30.16,1,0,3,0.00
2013-9-30,69,54,45,50,47,43,93,79,45,30.17,30.00,1,0,4,0.00
2013-10-18,65,58,46,58,48,41,93,72,41,29.95,29.65,4,1,10,0.03
2013-10-19,65,52,41,45,40,36,87,66,34,30.01,29.80,2,0,6,0.01
2013-10-20,60,50,40,48,34,-100,93,61,30,30.05,29.73,4,1,8,0.02
2013-10-21,66,49,37,41,36,32,85,64,33,30.15,30.04,3,0,6,0.00
2013-10-22,65,52,42,50,43,37,92,72,48,30.04,29.75,4,0,11,0.00
2013-10-23,50,43,34,37,33,29,89,69,45,29.84,29.63,1,0,3,0.00
2013-10-24,52,44,35,34,27,19,81,55,30,29.91,29.68,5,1,12,0.00
2013-10-25,48,41,32,33,26,22,86,55,38,30.19,29.92,3,1,7,0.00
2013-10-26,54,42,28,33,27,21,89,60,27,30.19,29.92,4,1,13,0.00
2013-10-27,53,45,37,37,29,-100,87,58,37,30.09,29.85,4,1,9,0.01
2013-10-28,57,42,31,31,26,-100,86,58,36,30.38,30.09,4,1,10,0.01
2013-10-29,46,34,25,25,22,14,83,64,28,30.48,30.38,2,0,4,0.00
2013-10-30,51,38,29,41,33,24,90,82,61,30.40,30.23,1,0,3,0.02
2013-11-12,47,34,25,37,23,13,88,65,51,30.22,29.93,4,1,11,0.12
2013-11-13,35,27,21,14,12,7,71,55,34,30.32,30.21,3,1,7,0.01
2013-11-14,49,37,27,21,17,14,59,46,28,30.19,30.08,5,1,9,0.00
2013-11-15,60,44,33,30,18,8,63,37,13,30.23,30.14,2,0,8,0.00
2013-11-16,59,44,36,31,23,-100,73,50,20,30.35,30.22,2,0,3,0.00
2013-11-17,52,42,30,44,35,25,92,79,60,30.35,29.91,1,0,2,0.05
2013-11-18,64,58,45,59,48,37,94,72,41,29.91,29.59,4,2,10,0.28